This is the latest recevied weather packets stored in our database for station/object KA0EGE. If no packets are shown the sender has not sent any weather packets the latest 10 day(s).
| Time | Temp. | Humidity | Pressure | Rain* | Wind** | Luminosity | Snow |
|---|---|---|---|---|---|---|---|
| 1777237934 | 23.33° C | 87% | 1014 hPa | 0 mm | - | 110 W/m² | - |
| 1777237629 | 23.33° C | 88% | 1014 hPa | 0 mm | - | 110 W/m² | - |
| 1777237328 | 23.33° C | 87% | 1013.8 hPa | 0 mm | - | 112 W/m² | - |
| 1777237024 | 23.33° C | 87% | 1014 hPa | 0 mm | - | 124 W/m² | - |
| 1777236722 | 22.78° C | 87% | 1014.2 hPa | 0 mm | - | 127 W/m² | - |
| 1777236421 | 22.78° C | 91% | 1014 hPa | 0 mm | - | 96 W/m² | - |
| 1777236117 | 22.78° C | 91% | 1014.1 hPa | 0 mm | - | 91 W/m² | - |
| 1777235814 | 22.78° C | 91% | 1014 hPa | 0 mm | - | 110 W/m² | - |
| 1777235511 | 22.78° C | 90% | 1014.1 hPa | 0 mm | - | 99 W/m² | - |
| 1777235207 | 22.78° C | 91% | 1014.2 hPa | 0 mm | - | 111 W/m² | - |
| 1777234903 | 22.78° C | 90% | 1014.1 hPa | 0 mm | - | 153 W/m² | - |
| 1777234599 | 22.78° C | 89% | 1013.8 hPa | 0 mm | - | 193 W/m² | - |
| 1777234299 | 22.22° C | 90% | 1013.7 hPa | 0 mm | - | 184 W/m² | - |
| 1777233996 | 22.22° C | 91% | 1014.1 hPa | 0 mm | - | 158 W/m² | - |
| 1777233692 | 22.22° C | 89% | 1014.3 hPa | 0 mm | - | 144 W/m² | - |
| 1777233387 | 22.22° C | 89% | 1014.7 hPa | 0 mm | - | 152 W/m² | - |
| 1777233082 | 21.67° C | 91% | 1014.8 hPa | 0 mm | - | 195 W/m² | - |
| 1777232779 | 21.67° C | 91% | 1014.9 hPa | 0 mm | - | 203 W/m² | - |
| 1777232477 | 21.11° C | 92% | 1014.8 hPa | 0 mm | - | 205 W/m² | - |
| 1777232175 | 21.11° C | 92% | 1015 hPa | 0 mm | - | 263 W/m² | - |
| 1777231871 | 20.56° C | 91% | 1015.3 hPa | 0 mm | - | 329 W/m² | - |
| 1777231568 | 20.56° C | 90% | 1015.3 hPa | 0 mm | - | 237 W/m² | - |
| 1777231264 | 21.11° C | 89% | 1015.4 hPa | 1.27 mm | - | 198 W/m² | - |
| 1777230960 | 21.67° C | 85% | 1015 hPa | 1.27 mm | - | 188 W/m² | - |
| 1777230656 | 21.67° C | 83% | 1015 hPa | 1.27 mm | - | 172 W/m² | - |
* Rain latest hour (hover to see other rain measurements)
** Current wind speed in m/s (hover to see current wind gust speed)